Location: Binningen
(47.7924°N, 8.7261°E)
Time: 08:01:34
(UTC+00:00)

ALOS 2 - Pass Details

Date: 17 May 2021
Orbit: 630 x 632 km, 97.9° (Epoch: 20 June)

Event Time Altitude Azimuth Distance (km) Brightness Sun altitude
Exits shadow 23:08:47 56° 237° (WSW) 757 2.7 -22.6°
Maximum altitude 23:09:08 58° 259° (W) 743 2.8 -22.6°
Drops below altitude 10° 23:13:29 10° 339° (NNW) 2,025 6.2 -22.6°
Sets 23:15:44 0° 344° (NNW) 2,937 7.3 -22.6°
